This is the latest recevied weather packets stored in our database for station/object WB0OCV. If no packets are shown the sender has not sent any weather packets the latest 1 day(s).
| Time | Temp. | Humidity | Pressure | Rain* | Wind** | Luminosity | Snow |
|---|---|---|---|---|---|---|---|
| 1777981168 | 13.33° C | 84% | 1015 hPa | 0 mm | 0.45 m/s, 165° | 45 W/m² | - |
| 1777980865 | 13.33° C | 85% | 1015.2 hPa | 0 mm | 0.89 m/s, 210° | 44 W/m² | - |
| 1777980560 | 12.78° C | 88% | 1015 hPa | 0 mm | 0 m/s | 42 W/m² | - |
| 1777980258 | 12.78° C | 88% | 1015 hPa | 0 mm | 0 m/s | 41 W/m² | - |
| 1777979954 | 12.22° C | 89% | 1015 hPa | 0 mm | 0.45 m/s, 113° | 40 W/m² | - |
| 1777979649 | 12.22° C | 90% | 1015.1 hPa | 0 mm | 0 m/s | 40 W/m² | - |
| 1777979345 | 12.22° C | 90% | 1014.8 hPa | 0 mm | 0 m/s | 38 W/m² | - |
| 1777979042 | 12.22° C | 90% | 1014.9 hPa | 0 mm | 0 m/s | 39 W/m² | - |
| 1777978739 | 11.67° C | 90% | 1014.8 hPa | 0 mm | 0 m/s | 37 W/m² | - |
| 1777978435 | 11.67° C | 90% | 1015.1 hPa | 0 mm | 0 m/s | 39 W/m² | - |
| 1777978132 | 11.67° C | 91% | 1015 hPa | 0 mm | 0 m/s | 35 W/m² | - |
| 1777977829 | 11.67° C | 91% | 1014.9 hPa | 0 mm | 0 m/s | 31 W/m² | - |
| 1777977525 | 11.11° C | 92% | 1015 hPa | 0 mm | 0 m/s | 35 W/m² | - |
| 1777977223 | 10.56° C | 94% | 1014.8 hPa | 0 mm | 0 m/s | 39 W/m² | - |
| 1777976920 | 10.56° C | 95% | 1014.8 hPa | 0 mm | 0 m/s | 27 W/m² | - |
| 1777976617 | 10° C | 95% | 1014.9 hPa | 0 mm | 0 m/s | 23 W/m² | - |
| 1777976313 | 10° C | 95% | 1014.9 hPa | 0 mm | 0 m/s | 21 W/m² | - |
| 1777976008 | 10° C | 97% | 1014.7 hPa | 0 mm | 0 m/s | 19 W/m² | - |
| 1777975704 | 9.44° C | 97% | 1014.6 hPa | 0 mm | 0 m/s | 16 W/m² | - |
| 1777975401 | 9.44° C | 97% | 1014.6 hPa | 0 mm | 0 m/s | 14 W/m² | - |
| 1777975096 | 9.44° C | 97% | 1014.7 hPa | 0 mm | 0 m/s | 11 W/m² | - |
| 1777974795 | 9.44° C | 97% | 1014.6 hPa | 0 mm | 0 m/s | 9 W/m² | - |
| 1777974490 | 9.44° C | 97% | 1014.7 hPa | 0 mm | 0 m/s | 7 W/m² | - |
| 1777974187 | 9.44° C | 97% | 1014.7 hPa | 0 mm | 0 m/s | 5 W/m² | - |
| 1777973882 | 9.44° C | 98% | 1014.7 hPa | 0 mm | 0 m/s | 3 W/m² | - |
* Rain latest hour (hover to see other rain measurements)
** Current wind speed in m/s (hover to see current wind gust speed)